TITAN 3C TRANSTAGE DEB, 27723

Orbit data source: Space-Track

TITAN 3C TRANSTAGE DEB, 27723 is space debris in HEO originally from a launch on Tue, 21 Dec 1965 UTC launched from the Air Force Eastern Test Range (AFETR). Debris objects in space refer to the collection of defunct objects orbiting the Earth. Examples of debris include non-operational satellites, rocket bodies, and fragments generated from explosions, collisions, or faulty payload assembly.

Loading next visibility...
Identifier
27723, 1965-108BD
Orbit
HEO
Country
Flag of USUS
Related business
Manufacturer
Unknown
Mission
Spacecraft
Bus & Motor
Unknown
Mass
Unknown
Launch date (UTC)
1965-12-21 (60 years ago)
Launch vehicle
Unknown
Launch site
Air Force Eastern Test Range (AFETR)
Object type
Payload
Rocket body
Debris
Shape & HBR
Unknown shape, 0.1 m
Radar Cross Section
Small (<0.1 m²)

Expand to show TLE details & history
Last TLE update: 2 months ago

TLE from 2 months ago
0 TITAN 3C TRANSTAGE DEB
1 27723U 65108BD  26086.97573894  .00000398  00000-0  70447-2 0  9999
2 27723  27.2497 234.0420 6724896 176.1221 263.7568  2.75926604  1640
Epoch: 2026-03-27T23:25Z
TLE epoch observation values (Epoch: 2026-03-27T23:25:03.844Z)
Latitude
9.45726°
Longitude
76.19458°
Altitude
23,758.066 km
Speed
2.809 km/s
True Right ascension
16h 51m 27s
True Declination
9° 26' 39"
Sunlit
Object was in daylight at epoch
Visualization orbit readout
Latitude
Unknown
Longitude
Unknown
Altitude
Unknown
Speed
Unknown
Apparent Right ascension
Unknown
Apparent Declination
Unknown
Sunlit
N/A
Visualization observer readout
Local Sidereal Time
00:50:37
Azimuth
Unknown
Elevation
Unknown
Doppler factor
Unknown
Orbital elements
Apogee altitude
29,539.408 km
Perigee altitude
655.311 km
Semi-major axis
21,475.496 km
Eccentricity
0.67249
Inclination
27.2497°
RAAN
234.042°
Arg. of periapsis
176.1221°
True anomaly
204.8781°
Mean anomaly
263.7568°
Eccentric anomaly
232.98912°
Mean motion
0.68965 °/min
Orbital period
522 mins
BSTAR
0.0070447
Loading maneuver chart data...
Computing Atmospheric mass density...

Documentation

Showing up to 5 results
|